Location: Elche
(38.2500°N, 0.7000°W)
Time: 08:17:48
(UTC+01:00)

ISS - Visible Passes

Search period start: 23 March 2019 00:00
Search period end: 02 April 2019 01:00
Orbit: 406 x 411 km, 51.6° (Epoch: 23 March)

Date Brightness Start Highest point End Pass type
(mag) Time Alt. Az. Time Alt. Az. Time Alt. Az.
23 Mar -2.9 20:18:41 10° WSW 20:21:53 48° NW 20:25:06 10° NE visible
23 Mar -0.3 21:57:45 10° NW 21:57:58 11° NW 21:57:58 11° NW visible
24 Mar -1.1 21:05:37 10° WNW 21:07:45 16° NNW 21:09:24 12° N visible
25 Mar -1.5 20:13:46 10° W 20:16:27 23° NNW 20:19:09 10° NNE visible
26 Mar -0.8 21:01:46 10° NNW 21:02:34 11° NNW 21:03:21 10° N visible
27 Mar -1.0 20:09:22 10° NW 20:11:09 14° NNW 20:12:56 10° NNE visible
31 Mar -0.8 22:36:55 10° N 22:37:33 12° N 22:37:33 12° N visible
01 Apr -1.0 21:46:40 10° N 21:47:02 10° NNE 21:47:23 10° NNE visible
